Warning: Javascript must be enabled to use all the features on this page!


Page Loading - Please Wait...

Click to hideNews Bulletins

Streamflow Measurements for the Nation


USGS 11455095 SACRAMENTO R DEEP WATER SHIP CHANNEL NR FREEPORT


Yolo County, California
Hydrologic Unit Code 18020163
Latitude  38°28'36.73", Longitude 121°35'01.11" NAD83
Gage datum 8 feet above NAVD88
Output formats
HTML table with channel data
HTML table without channel data
Tab-separated data with channel data
Tab-separated data without channel data
Graph of data
Reselect output format
Meas.
Number
  Date       Time Time
Datum
Measurement
Used?
  Who Measuring
Agency
Stream
flow
(ft3/s)
Gage
Height
(ft)
GH
Change
(ft)
Meas.
Duration
(hr)
Meas.
Rated
  Control Flow
Adjust.
Code
 
2242024-01-26 12:43:34PSTYesTVIOLETTE, AUSGS-45205.58 Poor NONE
2232024-01-26 12:39:17PSTYesTVIOLETTE, AUSGS-40005.54 Poor NONE
2222024-01-26 12:35:23PSTYesTVIOLETTE, AUSGS-37405.50 Poor NONE
2212024-01-26 12:31:33PSTYesTVIOLETTE, AUSGS-32805.47 Poor NONE
2202024-01-26 12:27:48PSTYesTVIOLETTE, AUSGS-29405.45 Poor NONE
2192024-01-26 12:24:04PSTYesTVIOLETTE, AUSGS-26705.42 Poor NONE
2182024-01-26 12:20:13PSTYesTVIOLETTE, AUSGS-23305.40 Poor NONE
2172024-01-26 12:10:27PSTYesTVIOLETTE, AUSGS-15305.35 Poor NONE
2332023-09-25 10:58:11PSTYesAThomas,BGriUSGS-127005.06 Poor NONE
2322023-09-25 10:53:09PSTYesAThomas,BGriUSGS-123004.93 Poor NONE
2312023-09-25 10:48PSTYesAThomas,BGriUSGS-123004.80 Poor NONE
2302023-09-25 10:42:54PSTYesAThomas,BGriUSGS-126004.68 Poor NONE
2292023-09-25 10:37:55PSTYesAThomas,BGriUSGS-115004.58 Poor NONE
2282023-09-25 10:07:32PSTYesAThomas,BGriUSGS-82403.96 Poor NONE
2272023-09-25 10:03:04PSTYesAThomas,BGriUSGS-58003.93 Poor NONE
2262023-09-25 09:58:55PSTYesAThomas,BGriUSGS-64803.90 Poor NONE
2252023-09-25 09:54:03PSTYesAThomas,BGriUSGS-51603.81 Poor NONE
2162023-08-08 09:23:47PSTYesHFujiwara/BGUSGS-60707.13 Poor NONE
2152023-08-08 09:19:07PSTYesHFujiwara/BGUSGS-61307.06 Poor NONE
2142023-08-08 08:53:18PSTYesHFujiwara/BGUSGS-79406.71 Poor NONE
2132023-08-08 08:49:20PSTYesHFujiwara/BGUSGS-79306.62 Poor NONE
2122023-08-08 08:43:42PSTYesHFujiwara/BGUSGS-82806.54 Poor NONE
2112023-08-08 08:39:33PSTYesHFujiwara/BGUSGS-80306.45 Poor NONE
2102023-06-08 12:00:37PSTYesBGriffiths/CUSGS37506.03 Poor NONE
2092023-06-08 11:55:52PSTYesBGriffiths/CUSGS38806.08 Poor NONE
2082023-06-08 11:51:36PSTYesBGriffiths/CUSGS40306.11 Poor NONE
2072023-06-08 11:44:41PSTYesBGriffiths/CUSGS40206.17 Poor NONE
2062023-06-08 11:40:02PSTYesBGriffiths/CUSGS41806.22 Poor NONE
2052023-06-08 11:35:26PSTYesBGriffiths/CUSGS44906.26 Poor NONE
2042023-05-04 11:10:22PSTYesBGRIFFITHS/BUSGS29304.50 Poor NONE
2032023-05-04 11:06PSTYesBGRIFFITHS/BUSGS31404.53 Poor NONE
2022023-05-04 11:01:37PSTYesBGRIFFITHS/BUSGS31304.55 Poor NONE
2012023-05-04 10:57:06PSTYesBGRIFFITHS/BUSGS32404.57 Poor NONE
2002023-05-04 10:47:44PSTYesBGRIFFITHS/BUSGS34804.64 Poor NONE
1992023-05-04 10:43:16PSTYesBGRIFFITHS/BUSGS35104.67 Poor NONE
1982023-03-13 08:48:52PSTYesHFUJIWARA/BGUSGS36308.84 Poor NONE
1972023-03-13 08:43:16PSTYesHFUJIWARA/BGUSGS32108.88 Poor NONE
1962023-03-13 08:37:26PSTYesHFUJIWARA/BGUSGS28208.91 Poor NONE
1952023-03-13 08:31:36PSTYesHFUJIWARA/BGUSGS22908.94 Poor NONE
1942023-03-13 08:25:58PSTYesHFUJIWARA/BGUSGS19208.92 Poor NONE
1932023-03-13 08:21:19PSTYesHFUJIWARA/BGUSGS17108.98 Poor NONE
1922023-03-13 08:13:50PSTYesHFUJIWARA/BGUSGS10908.98 Poor NONE
1912023-03-13 08:05:37PSTYesHFUJIWARA/BGUSGS1038.99 Poor NONE
1902022-11-10 13:23:14PSTYesCCOLLEY/BGRIUSGS-90705.18 Poor NONE
1892022-11-10 13:18:08PSTYesCCOLLEY/BGRIUSGS-89005.09 Poor NONE
1882022-11-10 13:13:22PSTYesCCOLLEY/BGRIUSGS-86405.01 Poor NONE
1872022-11-10 13:08:12PSTYesCCOLLEY/BGRIUSGS-80604.92 Poor NONE
1862022-11-10 13:01:43PSTYesCCOLLEY/BGRIUSGS-76504.84 Poor NONE
1852022-11-10 12:58:08PSTYesCCOLLEY/BGRIUSGS-69704.78 Poor NONE
1842022-09-29 09:58:41PSTYesCCOLLEY/BGRIUSGS68605.43 Poor NONE
1832022-09-29 09:53:52PSTYesCCOLLEY/BGRIUSGS68305.50 Poor NONE
1822022-09-29 09:48:53PSTYesCCOLLEY/BGRIUSGS68005.56 Poor NONE
1812022-09-29 09:44:20PSTYesCCOLLEY/BGRIUSGS68205.63 Poor NONE
1802022-09-29 09:39:53PSTYesCCOLLEY/BGRIUSGS69805.69 Poor NONE
1792022-09-29 09:35:11PSTYesCCOLLEY/BGRIUSGS68005.75 Poor NONE
1782022-08-02 09:05:52PSTYesHFUJIWARA/BGUSGS78406.60 Poor NONE
1772022-08-02 09:01:02PSTYesHFUJIWARA/BGUSGS77806.67 Poor NONE
1762022-08-02 08:56:15PSTYesHFUJIWARA/BGUSGS76906.76 Poor NONE
1752022-08-02 08:51:51PSTYesHFUJIWARA/BGUSGS76406.80 Poor NONE
1742022-08-02 08:47:40PSTYesHFUJIWARA/BGUSGS77006.86 Poor NONE
1732022-08-02 08:42:31PSTYesHFUJIWARA/BGUSGS75706.94 Poor NONE
1722022-06-01 09:24:32PSTYesHFUJIWARA/BGUSGS49105.25 Poor NONE
1712022-06-01 09:19:43PSTYesHFUJIWARA/BGUSGS52805.30 Poor NONE
1702022-06-01 09:15:21PSTYesHFUJIWARA/BGUSGS53305.34 Poor NONE
1692022-06-01 09:10:08PSTYesHFUJIWARA/BGUSGS53705.42 Poor NONE
1682022-06-01 09:05:44PSTYesHFUJIWARA/BGUSGS56605.44 Poor NONE
1672022-06-01 08:47:27PSTYesHFUJIWARA/BGUSGS63205.71 Poor NONE
1662022-06-01 08:42:42PSTYesHFUJIWARA/BGUSGS69505.78 Poor NONE
1652022-06-01 08:38:16PSTYesHFUJIWARA/BGUSGS67305.82 Poor NONE
1642022-04-06 09:55:25PSTYesHFUJIWARA/BGUSGS73205.99 Poor NONE
1632022-04-06 09:49:26PSTYesHFUJIWARA/BGUSGS74706.08 Poor NONE
1622022-04-06 09:43:57PSTYesHFUJIWARA/BGUSGS73306.17 Poor NONE
1612022-04-06 09:38:26PSTYesHFUJIWARA/BGUSGS74006.25 Poor NONE
1602022-04-06 09:33:13PSTYesHFUJIWARA/BGUSGS73806.34 Poor NONE
1592022-04-06 09:27:48PSTYesHFUJIWARA/BGUSGS71006.42 Poor NONE
1582022-02-08 10:37:19PSTYesEDuber/BGRIFUSGS4277.47 Poor NONE
1572022-02-08 10:32:27PSTYesEDuber/BGRIFUSGS6387.46 Poor NONE
1562022-02-08 10:27:27PSTYesEDuber/BGRIFUSGS5477.48 Poor NONE
1552022-02-08 10:22:18PSTYesEDuber/BGRIFUSGS1807.55 Poor NONE
1542022-02-08 10:17:01PSTYesEDuber/BGRIFUSGS23.07.47 Poor NONE
1532022-02-08 10:08:50PSTYesEDuber/BGRIFUSGS9.377.49 Poor NONE
1522021-12-10 12:02:34PSTYesJEHATFIELD/BUSGS24906.98 Poor NONE
1512021-12-10 11:58:16PSTYesJEHATFIELD/BUSGS22707.01 Poor NONE
1502021-12-10 11:53:51PSTYesJEHATFIELD/BUSGS21507.03 Poor NONE
1492021-12-10 11:49:26PSTYesJEHATFIELD/BUSGS21007.05 Poor NONE
1482021-12-10 11:44:43PSTYesJEHATFIELD/BUSGS19507.08 Poor NONE
1472021-12-10 11:38:45PSTYesJEHATFIELD/BUSGS16507.11 Poor NONE
1462021-10-18 10:21:09PSTYesJEHATFIELD/BUSGS10603.74 Poor NONE
1452021-10-18 10:15:44PSTYesJEHATFIELD/BUSGS14203.75 Poor NONE
1442021-10-18 10:10:30PSTYesJEHATFIELD/BUSGS15403.76 Poor NONE
1432021-10-18 10:05:07PSTYesJEHATFIELD/BUSGS18403.77 Poor NONE
1422021-10-18 09:59:47PSTYesJEHATFIELD/BUSGS20003.79 Poor NONE
1412021-10-18 09:54:22PSTYesJEHATFIELD/BUSGS21803.82 Poor NONE
1402021-08-25 11:59:58PSTYesACONLEN/BGRIUSGS37104.55 Poor NONE
1392021-08-25 11:55:58PSTYesACONLEN/BGRIUSGS33904.58 Poor NONE
1382021-08-25 11:52:01PSTYesACONLEN/BGRIUSGS36004.61 Poor NONE
1372021-08-25 11:48:12PSTYesACONLEN/BGRIUSGS34804.64 Poor NONE
1362021-08-25 11:44:11PSTYesACONLEN/BGRIUSGS36104.68 Poor NONE
1352021-08-25 11:40PSTYesACONLEN/BGRIUSGS35904.71 Poor NONE
1342021-06-17 08:51:35PSTYesBGRIFFIT/ACOUSGS-5237.34 Poor NONE
1332021-06-17 08:47:30PSTYesBGRIFFIT/ACOUSGS-8577.33 Poor NONE
1322021-06-17 08:43:29PSTYesBGRIFFIT/ACOUSGS-11007.32 Poor NONE
1312021-06-17 08:39:24PSTYesBGRIFFIT/ACOUSGS-16107.31 Poor NONE
1302021-06-17 08:35:12PSTYesBGRIFFIT/ACOUSGS-18707.29 Poor NONE
1292021-06-17 08:29:24PSTYesBGRIFFIT/ACOUSGS-24107.28 Poor NONE
1282021-04-06 08:49PSTYesACONLEN,BGRIUSGS-71905.19 Poor NONE
1272021-04-06 08:44:27PSTYesACONLEN,BGRIUSGS-69105.13 Poor NONE
1262021-04-06 08:39:46PSTYesACONLEN,BGRIUSGS-64905.06 Poor NONE
1252021-04-06 08:35:01PSTYesACONLEN,BGRIUSGS-59804.99 Poor NONE
1242021-04-06 08:30:35PSTYesACONLEN,BGRIUSGS-55704.94 Poor NONE
1232021-04-06 08:25:59PSTYesACONLEN,BGRIUSGS-52004.89 Poor NONE
1222021-01-26 10:09:45PSTYesAC/BGUSGS-37704.93 Poor NONE
1212021-01-26 10:04:22PSTYesAC/BGUSGS-28104.89 Poor NONE
1202021-01-26 09:58:30PSTYesAC/BGUSGS-25604.84 Poor NONE
1192021-01-26 09:53:43PSTYesAC/BGUSGS-20304.82 Poor NONE
1182021-01-26 09:48:17PSTYesAC/BGUSGS-9694.78 Poor NONE
1172021-01-26 09:39:57PSTYesAC/BGUSGS-4474.76 Poor NONE
1162020-11-24 12:43:32PSTYesAC/BTGUSGS-16407.09 Poor NONE
1152020-11-24 12:30:42PSTYesAC/BTGUSGS-21207.04 Poor NONE
1142020-11-24 12:19:31PSTYesAC/BTGUSGS-26606.99 Poor NONE
1132020-11-24 12:01:31PSTYesAC/BTGUSGS-35206.87 Poor NONE
1122020-11-24 11:47:15PSTYesAC/BTGUSGS-46206.76 Poor NONE
1112020-11-24 11:36:14PSTYesAC/BTGUSGS-52606.66 Poor NONE
1102020-08-06 12:35:33PSTYesMI/TVUSGS36403.82 Poor NONE
1092020-08-06 12:29:31PSTYesMI/TVUSGS37003.87 Poor NONE
1082020-08-06 12:02:21PSTYesMI/TVUSGS36004.08 Poor NONE
1072020-08-06 11:56:20PSTYesMI/TVUSGS36801.14 Poor NONE
1062020-08-06 11:31:40PSTYesMI/TVUSGS38704.34 Poor NONE
1052020-08-06 11:25:55PSTYesMI/TVUSGS39704.38 Poor NONE
1042019-12-11 13:39:41PSTYesMI/BTGUSGS-77307.92 Poor NONE
1032019-12-11 13:34:24PSTYesMI/BTGUSGS-80007.86 Poor NONE
1022019-12-11 13:18:55PSTYesMI/BTGUSGS-86107.60 Poor NONE
1012019-12-11 13:13:37PSTYesMI/BTGUSGS-86807.52 Poor NONE
1002019-12-11 13:01:34PSTYesMI/BTGUSGS-93207.32 Poor NONE
992019-12-11 12:56:09PSTYesMI/BTGUSGS-95107.20 Poor NONE
982019-12-11 12:40:45PSTYesMI/BTGUSGS-100006.88 Poor NONE
972019-12-11 12:35:23PSTYesMI/BTGUSGS-101006.78 Poor NONE
962019-12-11 12:25:16PSTYesMI/BTGUSGS-103006.57 Poor NONE
952019-12-11 12:19:54PSTYesMI/BTGUSGS-102006.47 Poor NONE
942019-12-11 12:13:19PSTYesMI/BTGUSGS-107006.35 Poor NONE
932019-12-11 12:07:49PSTYesMI/BTGUSGS-107006.22 Poor NONE
922019-12-11 11:58:29PSTYesMI/BTGUSGS-105006.03 Poor NONE
912019-12-11 11:48:58PSTYesMI/BTGUSGS-99705.85 Poor NONE
902019-12-11 11:22:25PSTYesMI/BTGUSGS-80405.39 Poor NONE
892019-12-11 11:17:03PSTYesMI/BTGUSGS-74705.30 Poor NONE
882019-12-11 11:05:43PSTYesMI/BTGUSGS-59705.14 Poor NONE
872019-12-11 11:00:28PSTYesMI/BTGUSGS-54505.08 Poor NONE
862019-12-11 10:49:07PSTYesMI/BTGUSGS-41704.96 Poor NONE
852019-12-11 10:43:49PSTYesMI/BTGUSGS-36104.91 Poor NONE
792019-11-21 14:44:55PSTYesBG/MIUSGS51107.03 Poor NONE
782019-11-21 14:19:31PSTYesBG/MIUSGS39107.27 Poor NONE
772019-11-21 14:09:18PSTYesBG/MIUSGS35207.36 Poor NONE
762019-11-21 13:58:44PSTYesBG/MIUSGS32007.42 Poor NONE
752019-11-21 13:44:57PSTYesBG/MIUSGS25307.50 Poor NONE
742019-11-21 13:39:58PSTYesBG/MIUSGS21907.52 Poor NONE
732019-11-21 13:29:44PSTYesBG/MIUSGS18607.56 Poor NONE
722019-11-21 13:24:44PSTYesBG/MIUSGS16507.58 Poor NONE
712019-11-21 13:15:24PSTYesBG/MIUSGS9387.60 Poor NONE
702019-11-21 13:10:23PSTYesBG/MIUSGS6807.61 Poor NONE
692019-11-21 13:04:58PSTYesBG/MIUSGS5097.62 Poor NONE
682019-11-21 12:59:41PSTYesBG/MIUSGS2247.63 Poor NONE
672019-11-21 12:54:12PSTYesBG/MIUSGS40.37.63 Poor NONE
662019-11-21 12:49:07PSTYesBG/MIUSGS-1927.63 Poor NONE
652019-11-21 12:43:29PSTYesBG/MIUSGS-2957.64 Poor NONE
642019-11-21 12:38:20PSTYesBG/MIUSGS-5207.64 Poor NONE
632019-11-21 12:18:53PSTYesBG/MIUSGS-12707.59 Poor NONE
622019-11-21 12:13:46PSTYesBG/MIUSGS-16207.57 Poor NONE
612019-11-21 11:55:12PSTYesBG/MIUSGS-26707.49 Poor NONE
602019-11-21 11:49:53PSTYesBG/MIUSGS-29507.47 Poor NONE
592019-11-21 11:34:24PSTYesBG/MIUSGS-41507.35 Poor NONE
582019-11-21 11:29:02PSTYesBG/MIUSGS-45507.30 Poor NONE
572019-11-21 11:02:27PSTYesBG/MIUSGS-65707.02 Poor NONE
562019-11-21 10:41:49PSTYesBG/MIUSGS-79406.72 Poor NONE
552019-11-21 10:17:28PSTYesBG/MIUSGS-92006.31 Poor NONE
542019-06-20 12:44:36PSTYesAC, MI, KSUSGS40905.00 Unspecified NONE
532019-06-20 12:38:04PSTYesAC, MI, KSUSGS39905.06 Unspecified NONE
522019-06-20 12:31:59PSTYesAC, MI, KSUSGS41405.11 Unspecified NONE
512019-06-20 12:25:45PSTYesAC, MI, KSUSGS42305.16 Unspecified NONE
502019-06-20 12:19:09PSTYesAC, MI, KSUSGS40005.22 Unspecified NONE
492019-06-20 12:12:07PSTYesAC, MI, KSUSGS37805.28 Unspecified NONE
482018-12-18 15:22:40PSTYesMI/ACUSGS62307.33 Fair NONE
472018-12-18 15:17:01PSTYesMI/ACUSGS58207.40 Fair NONE
452018-12-18 15:05:26PSTYesMI/ACUSGS53107.53 Fair NONE
462018-12-18 14:59:55PSTYesMI/ACUSGS46507.59 Fair NONE
442018-12-18 14:54:05PSTYesMI/ACUSGS47307.66 Fair NONE
432018-12-18 14:48:21PSTYesMI/ACUSGS43207.72 Fair NONE
422018-12-18 14:33:17PSTYesMI/ACUSGS37807.83 Fair NONE
412018-12-18 14:28:29PSTYesMI/ACUSGS31507.86 Fair NONE
402018-12-18 14:24:02PSTYesMI/ACUSGS30807.89 Fair NONE
392018-12-18 14:19:20PSTYesMI/ACUSGS29207.92 Fair NONE
382018-12-18 14:14:37PSTYesMI/ACUSGS28407.94 Fair NONE
372018-12-18 14:09:52PSTYesMI/ACUSGS24907.96 Fair NONE
362018-12-18 14:04:11PSTYesMI/ACUSGS21707.98 Fair NONE
352018-12-18 13:59:18PSTYesMI/ACUSGS17408.00 Fair NONE
342018-12-18 13:54:37PSTYesMI/ACUSGS16208.02 Fair NONE
332018-12-18 13:50:05PSTYesMI/ACUSGS13508.05 Fair NONE
322018-12-18 13:44:15PSTYesMI/ACUSGS10608.06 Fair NONE
312018-12-18 13:38:57PSTYesMI/ACUSGS9078.06 Fair NONE
302018-12-18 13:31:50PSTYesMI/ACUSGS2558.06 Fair NONE
292018-12-18 13:26:24PSTYesMI/ACUSGS1118.06 Fair NONE
282018-12-18 13:19:34PSTYesMI/ACUSGS-3368.07 Fair NONE
272018-12-18 13:13:56PSTYesMI/ACUSGS-3828.07 Fair NONE
262018-12-18 13:08PSTYesMI/ACUSGS-6828.07 Fair NONE
252018-12-18 13:02:36PSTYesMI/ACUSGS-10108.06 Fair NONE
242018-12-18 12:57:24PSTYesMI/ACUSGS-11908.05 Fair NONE
232018-12-18 12:52:28PSTYesMI/ACUSGS-15708.03 Fair NONE
222018-12-18 12:47:18PSTYesMI/ACUSGS-14608.00 Fair NONE
212018-12-18 12:42:18PSTYesMI/ACUSGS-16907.98 Fair NONE
202018-12-18 12:37:19PSTYesMI/ACUSGS-19007.97 Fair NONE
192018-12-18 12:31:56PSTYesMI/ACUSGS-20407.95 Fair NONE
182018-12-18 11:58:10PSTYesMI/ACUSGS-42007.72 Fair NONE
172018-12-18 11:53:02PSTYesMI/ACUSGS-44307.67 Fair NONE
162018-12-18 11:47:47PSTYesMI/ACUSGS-47907.62 Fair NONE
152018-12-18 11:42:20PSTYesMI/ACUSGS-52607.56 Fair NONE
142018-12-18 11:36:40PSTYesMI/ACUSGS-55107.50 Fair NONE
132018-12-18 11:30:35PSTYesMI/ACUSGS-61107.43 Fair NONE
122018-12-18 11:24:39PSTYesMI/ACUSGS-64407.35 Fair NONE
112018-12-18 11:18:33PSTYesMI/ACUSGS-67207.26 Fair NONE
102018-12-18 11:13:06PSTYesMI/ACUSGS-73107.18 Fair NONE
92018-12-18 11:08:06PSTYesMI/ACUSGS-74707.11 Fair NONE
82018-12-18 10:48:53PSTYesMI/ACUSGS-85606.80 Fair NONE
72018-12-18 10:42:43PSTYesMI/ACUSGS-85506.70 Fair NONE
62018-12-18 10:26:39PSTYesMI/ACUSGS-87506.41 Fair NONE
52018-12-18 10:20:32PSTYesMI/ACUSGS-91206.29 Fair NONE
42018-12-18 10:15:11PSTYesMI/ACUSGS-92806.18 Fair NONE
32018-12-18 10:10:19PSTYesMI/ACUSGS-93906.08 Fair NONE
22018-12-18 10:02:42PSTYesMI/ACUSGS-93105.92 Fair NONE
12018-12-18 09:58:25PSTYesMI/ACUSGS-95505.83 Fair NONE